Location: Fredericton
(45.9636°N, 66.6431°W)
Time: 10:33:31
(UTC-03:00)

Envisat - Pass Details

Date: 27 January 2022
Orbit: 764 x 765 km, 98.2° (Epoch: 17 May)

Event Time Altitude Azimuth Distance (km) Brightness Sun altitude
Rises 06:20:45 0° 5° (N) 3,242 6.2 -16.3°
Reaches altitude 10° 06:23:15 10° 356° (N) 2,312 5.3 -15.9°
Maximum altitude 06:27:43 32° 294° (WNW) 1,296 3.6 -15.1°
Drops below altitude 10° 06:32:10 10° 233° (SW) 2,299 5.1 -14.3°
Sets 06:34:40 0° 223° (SW) 3,221 5.9 -13.9°
